{"data":{"norad_id":56014,"epoch":"2026-09-20T01:34:42.947904Z","epoch_age_seconds":143569,"freshness":"FRESH","line1":"1 56014U 23042AE  26263.06577486  .00000607  00000+0  31593-4 0  9996","line2":"2 56014  43.0051  27.4275 0001493 272.4058  87.6623 15.27575600192768","mean_motion":15.275756,"eccentricity":0.0001493,"inclination_deg":43.0051,"raan_deg":27.4275,"arg_perigee_deg":272.4058,"mean_anomaly_deg":87.6623,"bstar":3.1593e-5,"rev_number":19276,"period_min":94.26702023782,"perigee_km":482.03789420297,"apogee_km":484.08664830537,"semimajor_km":6861.1992712542,"source":"CELESTRAK","updated_at":"2026-09-21T09:00:33.354947Z"}}